Location: Beaurecueil
(43.5122°N, 5.5450°E)
Time: 02:03:16
(UTC+00:00)

Meteor 1-21 - Pass Details

Date: 19 June 2021
Orbit: 846 x 885 km, 81.2° (Epoch: 03 August)

Event Time Altitude Azimuth Distance (km) Brightness Sun altitude
Rises 21:28:12 0° 236° (SW) 3,425 7.3 -16.6°
Reaches altitude 10° 21:31:32 10° 256° (WSW) 2,487 6.8 -16.9°
Maximum altitude 21:35:07 17° 296° (WNW) 2,029 6.9 -17.2°
Drops below altitude 10° 21:38:43 10° 336° (NNW) 2,485 7.9 -17.5°
Sets 21:42:04 0° 356° (N) 3,421 8.6 -17.8°
